When you browse on this site, cookies collect data to enhance your experience and personalize the content and advertising you see.
Visit our Privacy Policy to learn more. By continuing to use the site, you agree to this use of cookies and data.

Stündliche Wetter Kandahar

Heute, 19 September, Samstag

Zeit Temperatur Niederschläge Wind Luftdruck Luftfeuchtigkeit
00:00 +20°C° 0 mm 1 m/S 670 mmHg 19%
01:00 +20°C° 0 mm 1 m/S 670 mmHg 20%
02:00 +19°C° 0 mm 1 m/S 670 mmHg 21%
03:00 +16°C° 0 mm 0 m/S 670 mmHg 22%
04:00 +15°C° 0 mm 0 m/S 670 mmHg 24%
05:00 +17°C° 0 mm 0 m/S 671 mmHg 21%
06:00 +21°C° 0 mm 1 m/S 672 mmHg 18%
07:00 +23°C° 0 mm 1 m/S 673 mmHg 16%
08:00 +25°C° 0 mm 1 m/S 673 mmHg 14%
09:00 +27°C° 0 mm 1 m/S 673 mmHg 13%
10:00 +29°C° 0 mm 1 m/S 674 mmHg 11%
11:00 +31°C° 0 mm 2 m/S 673 mmHg 10%
12:00 +34°C° 0 mm 2 m/S 673 mmHg 9%
13:00 +35°C° 0 mm 2 m/S 673 mmHg 7%
14:00 +36°C° 0 mm 3 m/S 672 mmHg 7%
15:00 +36°C° 0 mm 4 m/S 672 mmHg 7%
16:00 +36°C° 0 mm 4 m/S 672 mmHg 7%
17:00 +33°C° 0 mm 4 m/S 671 mmHg 9%
18:00 +29°C° 0 mm 4 m/S 671 mmHg 11%
19:00 +25°C° 0 mm 3 m/S 671 mmHg 14%
20:00 +24°C° 0 mm 3 m/S 671 mmHg 15%
21:00 +23°C° 0 mm 2 m/S 671 mmHg 16%
22:00 +21°C° 0 mm 2 m/S 671 mmHg 17%
23:00 +21°C° 0 mm 1 m/S 670 mmHg 17%

Morgen, 20 September, Sonntag

Zeit Temperatur Niederschläge Wind Luftdruck Luftfeuchtigkeit
00:00 +20°C° 0 mm 1 m/S 670 mmHg 18%
01:00 +20°C° 0 mm 1 m/S 670 mmHg 18%
02:00 +19°C° 0 mm 1 m/S 670 mmHg 19%
03:00 +16°C° 0 mm 0 m/S 670 mmHg 20%
04:00 +16°C° 0 mm 0 m/S 670 mmHg 20%
05:00 +18°C° 0 mm 0 m/S 671 mmHg 18%
06:00 +20°C° 0 mm 0 m/S 672 mmHg 15%
07:00 +23°C° 0 mm 0 m/S 673 mmHg 13%
08:00 +25°C° 0 mm 0 m/S 674 mmHg 11%
09:00 +29°C° 0 mm 1 m/S 674 mmHg 10%
10:00 +32°C° 0 mm 1 m/S 674 mmHg 8%
11:00 +34°C° 0 mm 2 m/S 674 mmHg 7%
12:00 +36°C° 0 mm 3 m/S 673 mmHg 6%
13:00 +37°C° 0 mm 4 m/S 673 mmHg 5%
14:00 +37°C° 0 mm 4 m/S 673 mmHg 5%
15:00 +37°C° 0 mm 5 m/S 672 mmHg 5%
16:00 +37°C° 0 mm 5 m/S 672 mmHg 5%
17:00 +34°C° 0 mm 4 m/S 672 mmHg 6%
18:00 +30°C° 0 mm 4 m/S 671 mmHg 7%
19:00 +27°C° 0 mm 3 m/S 671 mmHg 8%
20:00 +25°C° 0 mm 3 m/S 671 mmHg 9%
21:00 +24°C° 0 mm 2 m/S 671 mmHg 10%
22:00 +23°C° 0 mm 2 m/S 671 mmHg 10%
23:00 +21°C° 0 mm 2 m/S 670 mmHg 11%

übermorgen, 21 September, Montag

Zeit Temperatur Niederschläge Wind Luftdruck Luftfeuchtigkeit
00:00 +21°C° 0 mm 1 m/S 670 mmHg 11%
01:00 +20°C° 0 mm 1 m/S 670 mmHg 12%
02:00 +18°C° 0 mm 0 m/S 670 mmHg 12%
03:00 +17°C° 0 mm 0 m/S 670 mmHg 12%
04:00 +16°C° 0 mm 0 m/S 670 mmHg 13%
05:00 +19°C° 0 mm 0 m/S 671 mmHg 11%
06:00 +23°C° 0 mm 1 m/S 672 mmHg 9%
07:00 +26°C° 0 mm 1 m/S 673 mmHg 8%
08:00 +28°C° 0 mm 1 m/S 673 mmHg 7%
09:00 +30°C° 0 mm 2 m/S 673 mmHg 6%
10:00 +32°C° 0 mm 2 m/S 673 mmHg 5%
11:00 +35°C° 0 mm 3 m/S 673 mmHg 4%
12:00 +36°C° 0 mm 4 m/S 673 mmHg 4%
13:00 +39°C° 0 mm 5 m/S 673 mmHg 3%
14:00 +39°C° 0 mm 6 m/S 672 mmHg 3%
15:00 +38°C° 0 mm 7 m/S 672 mmHg 3%
16:00 +38°C° 0 mm 7 m/S 671 mmHg 3%
17:00 +34°C° 0 mm 6 m/S 671 mmHg 4%
18:00 +29°C° 0 mm 5 m/S 671 mmHg 6%
19:00 +26°C° 0 mm 4 m/S 670 mmHg 7%
20:00 +24°C° 0 mm 3 m/S 670 mmHg 7%
21:00 +23°C° 0 mm 2 m/S 670 mmHg 8%
22:00 +21°C° 0 mm 1 m/S 670 mmHg 9%
23:00 +20°C° 0 mm 1 m/S 670 mmHg 9%

22 September, Dienstag

Zeit Temperatur Niederschläge Wind Luftdruck Luftfeuchtigkeit
00:00 +20°C° 0 mm 1 m/S 670 mmHg 10%
01:00 +19°C° 0 mm 1 m/S 669 mmHg 10%
02:00 +18°C° 0 mm 1 m/S 669 mmHg 11%
03:00 +18°C° 0 mm 1 m/S 669 mmHg 12%
04:00 +16°C° 0 mm 1 m/S 669 mmHg 13%
05:00 +19°C° 0 mm 1 m/S 670 mmHg 11%
06:00 +22°C° 0 mm 1 m/S 671 mmHg 9%
07:00 +24°C° 0 mm 1 m/S 672 mmHg 7%
08:00 +26°C° 0 mm 1 m/S 673 mmHg 6%
09:00 +28°C° 0 mm 1 m/S 673 mmHg 6%
10:00 +30°C° 0 mm 1 m/S 673 mmHg 5%
11:00 +32°C° 0 mm 2 m/S 673 mmHg 4%
12:00 +34°C° 0 mm 3 m/S 672 mmHg 4%
13:00 +36°C° 0 mm 4 m/S 672 mmHg 4%
14:00 +36°C° 0 mm 4 m/S 672 mmHg 4%
15:00 +36°C° 0 mm 5 m/S 671 mmHg 4%
16:00 +36°C° 0 mm 5 m/S 671 mmHg 5%
17:00 +33°C° 0 mm 4 m/S 671 mmHg 7%
18:00 +28°C° 0 mm 4 m/S 670 mmHg 10%
19:00 +25°C° 0 mm 3 m/S 669 mmHg 12%
20:00 +23°C° 0 mm 2 m/S 669 mmHg 13%
21:00 +21°C° 0 mm 2 m/S 669 mmHg 15%
22:00 +21°C° 0 mm 1 m/S 669 mmHg 16%
23:00 +20°C° 0 mm 1 m/S 669 mmHg 16%

23 September, Mittwoch

Zeit Temperatur Niederschläge Wind Luftdruck Luftfeuchtigkeit
00:00 +19°C° 0 mm 1 m/S 669 mmHg 17%
01:00 +18°C° 0 mm 1 m/S 668 mmHg 18%
02:00 +16°C° 0 mm 1 m/S 668 mmHg 19%
03:00 +15°C° 0 mm 0 m/S 668 mmHg 20%
04:00 +14°C° 0 mm 0 m/S 668 mmHg 21%
05:00 +19°C° 0 mm 1 m/S 669 mmHg 18%
06:00 +21°C° 0 mm 1 m/S 670 mmHg 15%
07:00 +23°C° 0 mm 1 m/S 672 mmHg 12%
08:00 +25°C° 0 mm 1 m/S 672 mmHg 11%
09:00 +27°C° 0 mm 1 m/S 672 mmHg 10%
10:00 +29°C° 0 mm 2 m/S 672 mmHg 9%
11:00 +31°C° 0 mm 2 m/S 672 mmHg 8%
12:00 +33°C° 0 mm 3 m/S 671 mmHg 8%
13:00 +35°C° 0 mm 3 m/S 671 mmHg 7%
14:00 +35°C° 0 mm 4 m/S 671 mmHg 7%
15:00 +35°C° 0 mm 4 m/S 670 mmHg 7%
16:00 +35°C° 0 mm 4 m/S 670 mmHg 7%
17:00 +32°C° 0 mm 4 m/S 669 mmHg 10%
18:00 +28°C° 0 mm 3 m/S 669 mmHg 12%
19:00 +24°C° 0 mm 3 m/S 668 mmHg 15%
20:00 +23°C° 0 mm 2 m/S 668 mmHg 16%
21:00 +22°C° 0 mm 1 m/S 668 mmHg 18%
22:00 +20°C° 0 mm 1 m/S 668 mmHg 20%
23:00 +20°C° 0 mm 1 m/S 668 mmHg 21%

24 September, Donnerstag

Zeit Temperatur Niederschläge Wind Luftdruck Luftfeuchtigkeit
00:00 +19°C° 0 mm 1 m/S 668 mmHg 21%
01:00 +18°C° 0 mm 1 m/S 668 mmHg 22%
02:00 +18°C° 0 mm 1 m/S 668 mmHg 23%
03:00 +18°C° 0 mm 1 m/S 668 mmHg 24%
04:00 +16°C° 0 mm 1 m/S 669 mmHg 24%
05:00 +18°C° 0 mm 1 m/S 669 mmHg 23%
06:00 +20°C° 0 mm 1 m/S 670 mmHg 22%
07:00 +20°C° 0 mm 2 m/S 671 mmHg 20%
08:00 +23°C° 0 mm 2 m/S 671 mmHg 18%
09:00 +25°C° 0 mm 1 m/S 672 mmHg 16%
10:00 +27°C° 0 mm 1 m/S 672 mmHg 14%
11:00 +29°C° 0 mm 1 m/S 672 mmHg 12%
12:00 +30°C° 0 mm 2 m/S 671 mmHg 11%
13:00 +32°C° 0 mm 2 m/S 671 mmHg 10%
14:00 +32°C° 0 mm 2 m/S 671 mmHg 9%
15:00 +32°C° 0 mm 2 m/S 671 mmHg 9%
16:00 +33°C° 0 mm 3 m/S 671 mmHg 9%
17:00 +29°C° 0 mm 3 m/S 670 mmHg 10%
18:00 +27°C° 0 mm 3 m/S 670 mmHg 12%
19:00 +24°C° 0 mm 3 m/S 670 mmHg 14%
20:00 +21°C° 0 mm 2 m/S 670 mmHg 15%
21:00 +19°C° 0 mm 2 m/S 669 mmHg 17%
22:00 +19°C° 0 mm 1 m/S 669 mmHg 18%
23:00 +18°C° 0 mm 1 m/S 669 mmHg 19%
Mehr zeigen